EW8311 Weather Reports


time (UTC)temp
C
wind
direction
speed
KPH
gust
KPH
rain 1hr
cm
rain 24hr
cm
rain mn
cm
humidity
%
barometer
mb
20260904110035 25 311 0.0 0.0 0.00 0.00 0.00 69 1005.8
20260904104534 25 311 0.0 0.0 0.00 0.00 0.00 67 1005.8
20260904103038 25 311 0.0 0.0 0.00 0.00 0.00 66 1005.8
20260904101531 25 311 0.0 0.0 0.00 0.00 0.00 66 1005.8
20260904100031 25 310 0.0 0.0 0.00 0.00 0.00 66 1005.8
20260904094534 25 316 0.0 3.2 0.00 0.00 0.00 67 1005.7
20260904093030 25 314 1.6 4.8 0.00 0.00 0.00 67 1005.6
20260904091529 25 304 0.0 0.0 0.00 0.00 0.00 67 1005.7
20260904090028 25 319 1.6 3.2 0.00 0.00 0.00 67 1005.7
20260904084527 26 326 0.0 3.2 0.00 0.00 0.00 65 1005.7
20260904083026 25 325 0.0 1.6 0.00 0.00 0.00 66 1005.7
20260904081523 26 321 0.0 0.0 0.00 0.00 0.00 65 1005.9
20260904080021 26 321 0.0 1.6 0.00 0.00 0.00 64 1005.9
20260904074524 26 321 1.6 3.2 0.00 0.00 0.00 63 1005.8
20260904073019 26 321 0.0 4.8 0.00 0.00 0.00 62 1005.8
20260904071516 26 316 1.6 3.2 0.00 0.00 0.00 63 1005.9
20260904070015 26 311 3.2 6.4 0.00 0.00 0.00 63 1006.0
20260904064513 26 313 3.2 6.4 0.00 0.00 0.00 63 1006.0
20260904063013 26 319 1.6 9.7 0.00 0.00 0.00 62 1006.0
20260904061512 26 314 1.6 8.0 0.00 0.00 0.00 61 1006.0
20260904060012 26 328 0.0 3.2 0.00 0.00 0.00 63 1005.9
20260904054512 25 319 1.6 4.8 0.00 0.00 0.00 66 1005.8
20260904053011 25 109 0.0 0.0 0.00 0.00 0.00 67 1005.8
20260904051516 26 108 0.0 3.2 0.00 0.00 0.00 65 1005.8
20260904050009 26 123 0.0 0.0 0.00 0.00 0.00 65 1005.8
20260904044511 26 124 0.0 0.0 0.00 0.00 0.00 64 1005.8
20260904043009 26 123 0.0 0.0 0.00 0.00 0.00 62 1005.8
20260904041510 27 123 0.0 0.0 0.00 0.00 0.00 63 1005.8
20260904040009 27 123 0.0 0.0 0.00 0.00 0.00 59 1005.8
20260904034507 27 93 0.0 0.0 0.00 0.00 0.00 57 1005.6
20260904033007 27 113 1.6 6.4 0.00 0.00 0.00 57 1005.5
20260904031505 27 113 0.0 0.0 0.00 0.00 0.00 57 1005.2
20260904030005 28 113 0.0 3.2 0.00 0.00 0.00 55 1005.1
20260904024505 28 279 0.0 6.4 0.00 0.00 0.00 55 1005.0
20260904023004 28 128 0.0 3.2 0.00 0.00 0.00 56 1004.6
20260904021504 28 108 0.0 0.0 0.00 0.00 0.00 56 1004.6
20260904020003 28 108 0.0 1.6 0.00 0.00 0.00 56 1004.5
20260904014502 28 108 0.0 6.4 0.00 0.00 0.00 54 1004.4
20260904013003 29 120 0.0 12.9 0.00 0.00 0.00 52 1004.3
20260904011504 31 193 4.8 11.3 0.00 0.00 0.00 48 1003.9
20260904010100 31 250 3.2 11.3 0.00 0.00 0.00 48 1003.6
20260904004604 31 327 3.2 8.0 0.00 0.00 0.00 46 1003.7
20260904003102 31 305 3.2 11.3 0.00 0.00 0.00 46 1003.6
20260904001601 31 318 3.2 11.3 0.00 0.00 0.00 47 1003.3
20260904000139 31 333 3.2 12.9 0.00 0.00 0.00 45 1003.6
20260903234558 31 325 3.2 9.7 0.00 0.00 0.00 45 1003.4
20260903233058 31 257 4.8 11.3 0.00 0.00 0.00 44 1003.4
20260903231612 32 257 1.6 9.7 0.00 0.00 0.00 43 1003.5
20260903230104 32 323 1.6 9.7 0.00 0.00 0.00 41 1003.4
20260903224558 33 291 4.8 11.3 0.00 0.00 0.00 39 1003.4
20260903223056 33 276 1.6 9.7 0.00 0.00 0.00 40 1003.4
20260903221554 34 325 1.6 6.4 0.00 0.00 0.00 36 1003.5
20260903220106 35 210 1.6 9.7 0.00 0.00 0.00 37 1003.8
20260903214552 33 322 0.0 8.0 0.00 0.00 0.00 39 1003.8
20260903213049 33 285 0.0 9.7 0.00 0.00 0.00 39 1004.1
20260903211544 32 238 3.2 12.9 0.00 0.00 0.00 41 1004.3
20260903210048 33 328 1.6 8.0 0.00 0.00 0.00 42 1004.4
20260903204539 32 132 0.0 6.4 0.00 0.00 0.00 42 1004.6
20260903203042 32 314 1.6 6.4 0.00 0.00 0.00 43 1004.9
20260903201533 32 266 3.2 8.0 0.00 0.00 0.00 43 1005.1
20260903200031 32 323 1.6 6.4 0.00 0.00 0.00 46 1005.5
20260903194541 31 326 1.6 11.3 0.00 0.00 0.00 47 1005.7
20260903193023 31 310 0.0 9.7 0.00 0.00 0.00 48 1005.9
20260903191536 30 288 3.2 11.3 0.00 0.00 0.00 49 1006.1
20260903190018 30 283 0.0 4.8 0.00 0.00 0.00 49 1006.5
20260903184521 30 326 1.6 8.0 0.00 0.00 0.00 51 1006.7
20260903183016 29 277 3.2 8.0 0.00 0.00 0.00 53 1006.9
20260903181531 30 268 1.6 6.4 0.00 0.00 0.00 52 1007.1
20260903180012 29 264 1.6 6.4 0.00 0.00 0.00 53 1007.2
20260903174511 29 309 0.0 6.4 0.00 0.00 0.00 52 1007.5
20260903173010 29 261 0.0 6.4 0.00 0.00 0.00 52 1007.6
20260903171519 29 242 1.6 4.8 0.00 0.00 0.00 54 1007.6
20260903170005 28 108 3.2 6.4 0.00 0.00 0.00 55 1007.5
20260903164503 28 262 1.6 6.4 0.00 0.00 0.00 59 1007.6
20260903163005 27 133 1.6 8.0 0.00 0.00 0.00 59 1007.7
20260903161604 27 116 0.0 3.2 0.00 0.00 0.00 61 1007.6
20260903160105 27 103 1.6 4.8 0.00 0.00 0.00 62 1007.8
20260903154558 26 96 0.0 3.2 0.00 0.00 0.00 64 1007.8
20260903153057 26 107 0.0 3.2 0.00 0.00 0.00 65 1007.8
20260903151559 26 99 1.6 4.8 0.00 0.00 0.00 66 1007.7
20260903150114 26 98 0.0 6.4 0.00 0.00 0.00 66 1007.7
20260903144555 26 108 0.0 1.6 0.00 0.00 0.00 67 1007.7
20260903143059 25 113 0.0 4.8 0.00 0.00 0.00 67 1007.7
20260903141557 25 122 0.0 3.2 0.00 0.00 0.00 68 1007.6
20260903140052 25 309 0.0 0.0 0.00 0.00 0.00 72 1007.5
20260903134550 25 309 0.0 0.0 0.00 0.00 0.00 71 1007.4
20260903133049 25 309 0.0 0.0 0.00 0.00 0.00 68 1007.2
20260903131548 25 309 0.0 0.0 0.00 0.00 0.00 64 1007.2
20260903130047 25 309 0.0 0.0 0.00 0.00 0.00 66 1007.0
20260903124558 25 309 0.0 0.0 0.00 0.00 0.00 66 1006.9
20260903123046 25 309 1.6 4.8 0.00 0.00 0.00 67 1006.7
20260903121548 25 351 0.0 1.6 0.00 0.00 0.00 69 1006.6
20260903120045 24 99 0.0 0.0 0.00 0.00 0.00 71 1006.5
20260903114604 25 102 0.0 0.0 0.00 0.00 0.00 71 1006.4
20260903113042 25 102 0.0 0.0 0.00 0.00 0.00 71 1006.4
20260903111548 25 102 0.0 0.0 0.00 0.00 0.00 71 1006.4